Date,TemperatureHighF,TemperatureAvgF,TemperatureLowF,DewpointHighF,DewpointAvgF,DewpointLowF,HumidityHigh,HumidityAvg,HumidityLow,PressureMaxIn,PressureMinIn,WindSpeedMaxMPH,WindSpeedAvgMPH,GustSpeedMaxMPH,PrecipitationSumIn
2012-1-1,75.7,67.1,60.9,62.6,57.5,51.3,76,71,63,30.08,30.01,13,5,14,0.00
2012-1-4,73.6,68.7,66.1,62.1,59.8,56.5,76,73,66,30.20,30.14,14,5,16,0.00
2012-1-5,78.0,69.7,63.7,61.5,57.6,50.8,77,66,54,30.20,30.07,24,9,28,0.00
2012-1-6,78.5,68.5,61.2,61.9,55.6,45.0,74,64,44,30.18,30.05,19,7,23,0.00
2012-1-7,77.8,68.3,58.5,60.2,56.3,48.6,79,66,50,30.14,30.04,15,5,19,0.00
2012-1-8,76.4,67.7,57.5,64.2,56.3,39.7,85,68,45,30.13,30.01,13,4,15,0.00
2012-1-9,75.7,69.0,62.2,62.8,58.6,47.8,82,70,49,30.13,30.02,17,4,17,0.00
2012-1-10,79.2,69.9,62.0,63.4,58.4,49.3,78,67,48,30.09,29.97,17,6,20,0.00
2012-1-11,78.3,68.5,63.0,64.4,58.8,52.9,83,72,50,30.06,29.96,14,4,17,0.00
2012-1-12,74.8,67.3,62.5,66.5,60.0,54.3,94,78,62,30.01,29.89,12,2,14,0.07
2012-1-13,75.0,66.9,59.9,65.3,61.0,55.1,92,82,67,29.97,29.88,11,2,0,0.00
2012-1-14,77.1,67.8,59.1,63.0,58.9,54.8,92,74,58,30.01,29.88,11,1,12,0.00
2012-1-15,78.9,71.3,63.8,68.7,60.7,55.2,81,70,53,30.03,29.87,12,2,13,0.00
2012-1-16,80.2,71.9,64.4,67.5,60.7,54.2,88,68,52,30.07,29.93,11,1,13,0.00
2012-1-17,80.8,71.5,63.6,67.7,63.9,57.3,86,77,59,30.08,29.92,11,1,14,0.00
2012-1-18,77.9,70.3,63.0,68.4,63.5,54.6,91,79,64,30.08,29.97,11,1,12,0.00
2012-1-19,77.1,69.1,61.9,67.6,62.6,54.3,89,80,65,30.14,30.06,14,1,16,0.00
2012-1-20,77.9,70.7,62.9,66.0,61.3,54.1,84,73,59,30.14,30.02,15,3,20,0.00
2012-1-21,78.8,70.9,65.1,65.3,58.8,55.1,82,66,47,30.17,30.03,24,7,28,0.00
2012-1-22,78.2,71.1,63.2,65.8,60.4,49.4,86,70,52,30.08,29.95,18,4,22,0.00
2012-1-23,77.3,69.1,60.7,65.1,60.3,54.3,86,74,59,30.09,29.97,11,1,14,0.00
2012-1-24,77.4,69.2,59.9,66.7,60.0,51.4,87,73,55,30.07,29.96,12,3,13,0.00
2012-1-25,77.9,70.5,63.8,66.2,61.9,57.6,85,75,61,30.06,29.94,11,2,0,0.00
2012-1-26,72.7,65.5,60.4,65.4,57.2,51.3,86,75,63,30.02,29.95,10,2,0,0.00
2012-1-27,83.0,71.1,63.0,64.5,57.2,48.8,75,62,39,30.07,29.91,17,5,21,0.00
2012-1-28,78.3,70.2,61.2,63.5,57.8,47.3,75,65,40,30.10,29.98,24,8,29,0.00
2012-1-29,78.1,71.2,65.7,62.5,59.2,53.7,75,66,53,30.14,30.01,25,10,29,0.00
2012-1-30,79.5,72.0,65.6,62.9,60.4,57.8,78,67,54,30.06,29.97,19,7,20,0.00
2012-1-31,79.0,69.7,60.0,61.2,57.8,51.4,80,67,50,30.05,29.92,16,5,17,0.00
2012-2-1,76.8,69.0,60.9,61.0,55.8,51.0,76,64,49,30.05,29.91,17,6,20,0.00
2012-2-2,77.5,73.8,66.3,61.3,58.3,52.8,78,59,44,30.05,29.95,15,4,20,0.00
2012-2-4,76.4,68.7,56.7,63.5,58.3,49.0,83,70,54,29.97,29.83,13,2,13,0.00
2012-2-5,78.1,69.4,61.7,65.8,59.2,50.7,89,70,53,29.95,29.84,13,2,14,0.00
2012-2-6,75.5,68.1,58.8,65.6,59.4,49.4,87,74,55,29.98,29.88,12,2,14,0.00
2012-2-7,77.0,69.0,61.3,64.3,60.5,57.0,91,76,52,29.99,29.86,22,5,32,0.04
2012-2-8,74.1,66.3,61.3,63.2,58.9,52.9,95,78,52,30.12,29.96,16,5,24,0.36
2012-2-9,77.3,67.4,60.3,59.6,55.5,50.7,80,67,48,30.26,30.08,21,8,21,0.00
2012-2-10,77.7,69.3,63.4,60.8,58.2,55.2,80,68,50,30.26,30.11,22,8,25,0.00
2012-2-11,79.0,70.0,61.6,63.9,60.1,54.8,83,72,53,30.24,30.13,21,6,22,0.00
2012-2-12,77.0,70.2,63.4,64.7,61.7,57.5,84,75,62,30.24,30.11,13,3,14,0.00
2012-2-13,80.0,70.5,63.7,64.5,60.4,54.8,86,71,51,30.19,30.05,15,3,16,0.00
2012-2-14,79.0,69.8,61.4,66.2,61.6,54.5,87,76,53,30.16,30.06,15,2,16,0.00
2012-2-15,76.8,68.6,59.7,65.1,60.3,54.4,88,75,64,30.18,30.08,13,3,13,0.00
2012-2-16,79.5,70.4,62.3,63.4,58.0,51.9,78,66,53,30.20,30.06,24,7,26,0.00
2012-2-17,78.3,70.8,64.2,62.3,58.7,54.3,78,66,51,30.19,30.03,30,7,30,0.00
2012-2-18,78.8,70.7,63.0,62.0,57.7,52.1,77,64,45,30.17,30.02,26,7,27,0.00
2012-2-19,79.3,70.1,60.6,65.0,58.8,53.9,87,68,51,30.12,29.92,25,6,29,0.05
2012-2-20,78.8,68.8,60.3,62.6,56.3,50.5,77,65,50,30.13,29.98,20,3,20,0.00
2012-2-21,78.8,68.3,60.6,62.2,57.7,53.1,80,69,54,30.16,30.01,17,4,17,0.00
2012-2-22,78.3,71.0,63.0,64.3,59.9,55.1,79,69,49,30.10,29.96,14,4,15,0.00
2012-2-23,79.3,71.0,64.9,66.2,60.6,56.2,80,70,54,30.05,29.88,19,5,19,0.00
2012-2-24,78.2,70.5,61.2,65.7,60.5,52.6,85,71,57,30.01,29.90,15,3,15,0.00
2012-2-25,79.7,71.3,64.4,67.2,62.7,58.4,86,75,57,30.03,29.93,11,2,12,0.00
2012-2-26,78.0,70.0,63.3,66.5,60.5,56.4,86,72,59,30.07,29.93,23,4,23,0.00
2012-2-27,78.3,70.6,64.5,65.3,60.5,55.6,77,71,56,30.08,29.96,23,5,23,0.00
2012-2-28,80.6,71.4,65.2,66.1,61.6,56.6,81,72,46,30.08,29.99,17,5,20,0.00
2012-2-29,76.0,70.7,66.1,66.5,61.7,57.9,79,73,60,30.07,29.98,15,4,15,0.00
2012-3-1,79.3,71.6,62.7,66.0,61.5,56.6,87,71,58,30.08,29.96,12,3,14,0.00
2012-3-2,79.0,71.7,63.5,66.4,62.7,58.1,89,74,58,30.10,29.98,14,3,13,0.00
2012-3-3,78.1,73.2,64.9,66.9,63.3,59.0,89,72,61,30.08,29.93,10,3,0,0.02
2012-3-4,78.0,69.3,63.9,65.9,62.0,56.6,89,78,63,30.01,29.86,14,4,14,0.11
2012-3-5,77.5,67.4,62.8,66.1,60.4,57.1,86,79,62,29.95,29.85,11,2,0,0.00
2012-3-6,83.0,69.3,62.2,65.9,61.4,57.1,93,77,43,30.09,29.89,14,2,14,0.02
2012-3-7,80.9,72.7,65.0,67.2,62.8,59.8,87,72,58,30.08,29.91,23,4,23,0.00
2012-3-8,80.5,72.1,64.9,64.2,61.5,58.3,82,70,52,30.00,29.86,35,8,35,0.00
2012-3-9,81.6,71.5,66.9,67.5,61.9,58.1,80,72,48,30.04,29.91,23,4,23,0.00
2012-3-10,75.0,68.8,65.5,62.4,59.5,56.4,78,72,64,30.08,29.99,28,7,28,0.00
2012-3-11,80.8,72.0,66.0,66.0,58.4,47.6,77,63,39,30.12,29.97,38,10,38,0.00
2012-3-12,79.2,70.9,63.4,66.1,60.8,50.9,79,71,58,30.11,29.98,30,9,30,0.00
2012-3-13,77.7,69.6,63.9,60.6,58.1,54.7,81,68,50,30.07,29.96,29,10,29,0.00
2012-3-14,78.6,69.5,62.9,59.3,57.2,53.9,80,66,49,30.10,29.97,24,8,24,0.00
2012-3-15,78.6,69.8,63.1,61.5,57.8,51.1,77,66,51,30.13,30.02,34,9,34,0.00
2012-3-16,76.8,70.5,65.2,63.5,59.0,54.9,77,68,55,30.19,30.07,21,4,21,0.00
2012-3-17,79.2,69.6,62.2,64.9,59.4,54.1,83,71,50,30.19,30.06,16,4,16,0.00
2012-3-18,77.3,69.3,61.0,64.2,60.1,54.5,85,73,60,30.12,30.02,15,3,15,0.00
2012-3-19,77.1,68.7,60.6,66.6,60.4,53.3,85,75,51,30.07,29.97,13,3,13,0.00
2012-3-20,79.2,64.8,58.0,65.5,56.4,45.2,86,75,60,30.10,29.99,15,3,15,0.00
2012-3-21,78.8,70.4,62.9,62.5,58.1,49.9,79,65,46,30.09,29.97,30,8,30,0.00
2012-3-22,79.2,70.9,65.3,60.5,57.3,52.4,76,63,48,30.08,29.91,30,10,30,0.00
2012-3-23,79.2,71.7,64.5,59.9,57.2,53.4,76,61,47,30.06,29.95,28,8,28,0.00
2012-3-24,80.3,71.3,64.7,63.9,60.3,56.7,79,69,52,30.08,29.99,27,6,27,0.00
2012-3-25,79.1,70.6,66.3,61.6,59.0,53.1,77,67,54,30.07,29.99,28,9,28,0.00
2012-3-26,79.0,69.4,63.2,60.7,57.5,54.2,79,67,51,30.09,29.98,26,8,26,0.00
2012-3-27,78.0,68.7,62.2,60.7,57.6,54.0,78,68,54,30.08,29.97,28,8,28,0.00
2012-3-28,80.3,70.5,62.2,60.3,57.0,50.6,79,63,45,30.08,29.98,22,7,22,0.00
2012-3-29,81.0,69.3,60.1,60.3,55.6,48.7,74,63,45,30.12,30.00,25,7,25,0.00
2012-3-30,77.7,70.3,64.9,61.1,57.5,50.6,74,64,51,30.09,29.91,38,12,38,0.00
2012-3-31,79.6,71.4,64.3,63.4,58.0,50.6,75,63,46,30.14,29.99,25,6,28,0.00
2012-4-1,78.3,70.0,60.7,65.3,59.4,49.8,88,70,54,30.17,30.03,15,2,15,0.00
2012-4-2,79.3,70.8,64.0,67.9,63.4,57.8,89,78,63,30.11,29.98,15,3,15,0.00
2012-4-3,80.3,71.8,63.5,65.9,60.9,56.2,89,69,53,30.07,29.94,15,3,15,0.00
2012-4-4,79.0,70.3,63.4,66.2,62.7,56.8,88,77,63,30.04,29.94,15,2,15,0.00
2012-4-5,79.7,71.6,64.5,64.4,59.3,55.1,80,66,44,30.05,29.93,23,6,23,0.00
2012-4-6,81.0,70.7,63.7,65.0,59.8,54.8,78,69,51,30.10,29.96,24,5,24,0.00
2012-4-7,78.8,70.9,65.6,63.0,59.7,57.8,78,68,52,30.11,29.96,34,8,34,0.00
2012-4-8,81.5,71.3,67.1,64.8,59.7,55.5,78,68,43,30.12,30.02,28,8,28,0.00
2012-4-9,79.0,70.3,65.4,61.3,58.3,53.0,81,67,47,30.12,30.02,27,9,27,0.00
2012-4-10,69.8,66.5,64.6,57.9,55.3,52.4,73,67,61,30.12,30.05,21,7,21,0.00
2012-4-11,79.7,71.1,62.7,64.3,59.9,52.8,83,68,55,30.13,30.02,17,5,18,0.00
2012-4-12,78.0,70.7,65.2,65.8,62.1,55.2,89,75,51,30.17,30.06,15,3,15,0.00
2012-4-13,77.6,70.1,62.0,66.6,61.9,58.1,89,76,59,30.16,30.07,14,2,14,0.00
2012-4-14,77.3,71.0,63.1,67.5,62.9,56.8,85,76,60,30.16,30.07,18,4,18,0.00
2012-4-15,82.0,72.7,66.3,64.5,60.4,57.1,77,66,48,30.15,30.01,26,8,26,0.00
2012-4-16,82.2,72.2,66.2,62.8,59.3,56.6,76,65,49,30.13,30.01,28,9,28,0.00
2012-4-17,80.7,72.1,66.2,63.8,59.6,55.1,75,65,50,30.12,29.99,29,8,29,0.00
2012-4-18,81.5,71.5,63.8,63.6,59.7,54.1,76,67,53,30.11,30.01,22,6,22,0.00
2012-4-19,81.9,71.6,64.2,62.8,58.9,51.8,76,65,47,30.10,30.01,27,7,27,0.00
2012-4-20,79.5,71.4,64.9,62.5,59.5,57.1,79,67,51,30.07,29.94,24,7,24,0.00
2012-4-21,79.7,70.7,64.2,61.8,58.6,56.1,78,66,49,30.04,29.92,28,9,28,0.00
2012-4-22,79.3,71.4,64.9,61.6,58.6,55.2,78,65,52,30.06,29.94,34,9,34,0.00
2012-4-23,78.8,70.5,63.9,63.7,60.1,54.6,78,70,58,30.11,30.00,29,10,29,0.00
2012-4-24,79.5,70.6,65.2,61.6,58.6,55.5,79,67,48,30.15,30.03,31,9,31,0.00
2012-4-25,78.0,70.1,64.9,65.1,60.6,56.4,79,72,53,30.11,30.02,22,4,25,0.00
2012-4-26,77.0,70.4,63.1,67.1,62.8,54.8,93,77,63,30.09,30.01,15,4,16,0.12
2012-4-27,74.0,70.1,66.1,66.5,64.1,61.1,86,81,70,30.11,30.08,7,2,0,0.13
2012-4-28,78.8,71.6,63.3,67.6,62.8,56.5,87,74,56,30.12,30.02,23,4,23,0.01
2012-4-29,78.5,69.7,62.4,67.1,61.6,54.9,89,76,62,30.13,30.04,25,4,25,0.13
2012-4-30,81.3,71.7,63.6,64.7,60.6,55.1,81,69,52,30.11,30.00,26,7,26,0.00
2012-5-1,78.5,70.2,62.6,66.0,60.3,53.6,79,71,59,30.12,29.97,26,5,26,0.00
2012-5-2,80.5,72.4,63.9,60.1,57.0,51.9,73,59,46,30.08,29.95,28,8,28,0.00
2012-5-3,79.5,72.5,67.5,66.8,61.6,58.1,82,69,54,30.07,30.00,32,6,32,0.00
2012-5-4,82.8,73.2,65.0,64.5,61.3,56.4,77,67,50,30.08,29.99,23,6,23,0.00
2012-5-5,82.7,72.6,65.2,63.8,60.6,55.3,79,67,51,30.08,29.99,23,7,23,0.00
2012-5-6,83.0,72.8,65.1,65.8,60.6,54.9,78,66,46,30.07,29.98,24,6,24,0.00
2012-5-7,81.0,72.2,64.5,63.1,60.2,54.3,80,67,48,30.11,30.00,27,7,27,0.00
2012-5-8,80.5,71.8,65.8,62.5,60.0,56.7,80,67,51,30.13,30.04,26,8,26,0.00
2012-5-9,80.8,71.5,64.9,61.5,57.6,53.7,77,62,46,30.08,29.99,29,9,29,0.00
2012-5-10,77.7,71.5,65.7,65.1,58.7,54.8,77,64,53,30.06,29.96,21,6,21,0.00
2012-5-11,79.2,71.3,65.2,65.9,58.4,52.6,77,64,45,30.04,29.95,25,6,25,0.00
2012-5-12,79.3,72.3,67.3,62.6,57.2,49.8,70,59,50,30.06,29.95,19,5,19,0.00
2012-5-13,79.5,71.5,61.3,60.8,57.4,52.4,81,62,47,30.06,29.95,17,5,17,0.00
2012-5-14,78.0,70.0,61.3,64.0,58.2,48.5,79,67,57,30.04,29.93,16,4,16,0.00
2012-5-15,80.3,71.7,60.5,63.7,59.1,49.4,78,65,44,30.05,29.93,16,5,16,0.00
2012-5-16,80.8,72.1,62.2,65.6,59.3,50.9,76,65,50,30.07,29.98,23,6,23,0.00
2012-5-17,82.0,72.4,66.0,67.5,62.2,54.4,88,71,49,30.11,30.02,23,5,23,0.04
2012-5-18,83.2,74.2,67.3,67.6,61.6,57.8,81,66,47,30.10,29.98,21,6,21,0.00
2012-5-19,82.5,73.4,67.2,67.4,61.7,57.2,77,67,46,30.06,29.95,24,7,24,0.00
2012-5-20,80.8,74.0,65.9,65.8,62.6,57.3,81,68,54,30.08,29.99,19,6,19,0.00
2012-5-21,79.5,73.7,66.6,67.0,62.8,57.8,76,69,58,30.10,30.00,23,6,23,0.00
2012-5-22,81.9,74.1,67.0,68.6,61.2,57.8,75,65,52,30.11,29.98,39,8,39,0.00
2012-5-23,81.8,72.7,64.8,68.4,62.1,54.8,87,70,48,30.08,29.99,30,5,30,0.04
2012-5-24,83.5,74.5,67.6,67.3,62.6,59.4,80,67,47,30.09,29.98,25,7,25,0.00
2012-5-25,85.3,74.8,65.8,64.8,60.9,55.5,81,63,42,30.05,29.96,22,6,24,0.00
2012-5-26,84.6,74.7,66.1,65.7,62.1,55.8,78,66,47,30.05,29.96,30,6,30,0.00
2012-5-27,82.3,74.1,69.1,68.7,64.8,61.1,88,73,57,30.04,29.96,32,6,32,0.00
2012-5-28,81.5,73.8,68.3,64.6,60.6,55.4,76,64,52,30.09,29.98,33,12,33,0.00
2012-5-29,82.7,73.8,67.5,63.3,59.5,55.6,74,62,47,30.12,30.01,28,9,28,0.00
2012-5-30,83.3,73.3,66.8,64.0,60.0,55.6,74,64,47,30.10,29.99,28,8,28,0.00
2012-5-31,81.5,73.3,66.6,65.4,60.1,55.1,77,64,47,30.10,30.03,27,9,27,0.00
2012-6-1,82.6,73.4,66.3,64.8,60.7,54.8,74,65,50,30.11,30.01,32,10,32,0.00
2012-6-2,80.2,72.9,67.4,63.5,60.8,57.3,80,66,50,30.11,30.01,29,10,29,0.00
2012-6-3,81.3,72.4,67.2,63.2,61.0,58.8,81,68,52,30.08,29.97,28,10,28,0.00
2012-6-4,81.2,73.1,65.8,67.8,63.2,56.4,77,71,60,30.07,29.98,25,6,25,0.00
2012-6-5,85.0,74.9,67.5,66.8,63.5,58.6,79,68,51,30.06,29.99,23,6,23,0.00
2012-6-6,81.7,73.9,68.9,67.7,64.0,61.8,85,72,58,30.06,29.97,26,7,26,0.00
2012-6-7,81.8,74.0,66.2,67.6,63.7,59.1,85,71,53,30.06,29.98,21,4,21,0.00
2012-6-8,83.5,74.3,66.1,66.4,62.6,56.8,85,68,50,30.04,29.95,25,6,25,0.00
2012-6-9,80.5,73.4,66.7,66.6,62.2,57.6,79,68,52,30.02,29.92,22,6,22,0.00
2012-6-10,85.0,74.5,66.0,67.1,62.3,56.3,82,67,47,30.01,29.93,24,6,24,0.00
2012-6-11,79.8,72.5,66.2,66.8,63.1,56.3,82,73,56,30.04,29.95,16,4,16,0.00
2012-6-12,80.5,73.2,64.0,67.1,63.3,55.9,81,72,62,30.04,29.96,16,4,16,0.00
2012-6-13,81.2,74.2,66.1,69.5,64.7,58.3,92,73,56,30.03,29.95,11,3,13,0.00
2012-6-14,80.8,73.6,64.4,69.1,64.5,57.1,93,74,55,30.05,29.96,13,4,12,0.05
2012-6-15,80.5,73.4,65.5,67.0,60.9,55.4,78,65,51,30.08,30.01,21,5,21,0.00
2012-6-16,83.5,74.4,67.4,67.0,63.2,58.8,80,69,49,30.08,29.98,25,8,25,0.00
2012-6-17,84.1,74.0,69.8,69.4,63.6,53.6,80,70,48,30.12,30.00,31,9,31,0.00
2012-6-18,81.0,73.9,69.0,62.0,60.0,55.1,74,62,49,30.03,29.90,44,13,44,0.00
2012-6-19,82.5,72.9,68.9,68.8,64.3,57.4,89,75,57,29.98,29.88,26,4,26,0.03
2012-6-20,78.5,72.3,65.0,69.4,64.3,59.4,85,76,67,30.01,29.93,24,4,24,0.00
2012-6-21,84.8,75.1,69.1,69.7,64.9,59.9,81,71,54,30.04,29.96,18,5,18,0.00
2012-6-22,84.0,75.3,67.6,68.2,64.7,59.8,82,70,55,30.06,29.95,24,6,24,0.00
2012-6-23,84.5,73.9,68.7,69.9,63.9,58.8,81,72,55,30.06,29.93,30,7,30,0.00
2012-6-24,83.0,74.8,68.3,64.6,62.3,58.1,79,66,50,30.08,29.98,29,11,29,0.00
2012-6-25,83.3,74.3,65.1,68.4,62.0,50.6,76,66,53,30.12,30.03,38,7,38,0.00
2012-6-26,80.3,73.5,68.3,64.9,62.0,56.6,78,68,56,30.11,29.99,28,9,28,0.00
2012-6-27,81.0,73.2,67.9,65.8,62.8,61.1,80,70,55,30.04,29.94,33,10,33,0.00
2012-6-28,83.3,72.8,67.8,69.5,64.5,59.6,93,76,55,30.08,29.95,24,6,24,0.48
2012-6-29,82.8,74.2,68.3,64.5,61.8,59.3,79,66,48,30.09,30.02,26,9,26,0.00
2012-6-30,83.7,74.6,67.9,63.3,61.1,57.6,79,64,47,30.05,29.94,22,7,22,0.00
2012-7-1,78.3,72.3,65.3,67.0,60.8,52.9,77,67,55,30.00,29.91,22,6,22,0.00
2012-7-2,82.8,72.2,64.3,67.4,60.8,53.7,89,68,50,30.04,29.96,19,5,19,0.02
2012-7-3,84.8,74.5,66.7,67.4,62.5,57.6,79,67,50,30.05,29.98,21,5,21,0.00
2012-7-4,85.7,74.5,66.4,67.5,63.6,57.3,80,69,51,30.03,29.91,22,4,22,0.00
2012-7-5,81.0,74.3,66.4,67.4,64.4,58.4,79,72,61,29.99,29.90,23,4,23,0.00
2012-7-6,83.8,75.0,68.2,67.1,63.9,60.5,82,69,53,30.03,29.95,28,8,28,0.00
2012-7-7,83.8,74.6,69.3,67.0,62.9,56.9,79,67,56,30.03,29.92,31,10,31,0.00
2012-7-8,80.8,73.7,66.5,65.5,61.7,57.1,79,67,54,30.04,29.95,26,7,26,0.00
2012-7-9,82.3,73.7,67.9,64.1,61.1,57.1,78,65,50,30.04,29.95,29,10,29,0.00
2012-7-10,82.5,73.2,66.5,65.5,61.3,56.4,78,67,52,30.04,29.95,29,9,29,0.00
2012-7-11,84.5,74.6,66.3,63.2,58.3,53.6,76,58,43,30.03,29.95,24,8,24,0.00
2012-7-12,85.7,74.8,64.9,67.2,61.8,54.1,78,65,45,30.00,29.90,22,7,22,0.00
2012-7-13,81.9,75.9,70.9,67.1,64.6,61.8,80,69,57,29.97,29.88,32,10,32,0.00
2012-7-14,85.5,75.6,69.9,67.9,62.4,59.6,75,64,46,30.02,29.92,28,9,28,0.00
2012-7-15,83.5,74.8,67.9,66.5,63.0,59.3,78,67,55,30.03,29.93,31,8,31,0.00
2012-7-16,84.3,74.9,67.5,69.0,64.9,58.1,79,71,57,30.03,29.92,23,6,23,0.00
2012-7-17,85.5,76.3,70.0,70.0,66.6,62.8,82,72,56,29.98,29.90,24,7,24,0.00
2012-7-18,83.2,75.6,70.4,68.4,65.9,62.2,84,72,60,30.01,29.93,26,9,26,0.00
2012-7-19,84.3,74.7,67.7,64.0,61.1,55.1,78,64,38,30.03,29.95,25,9,25,0.00
2012-7-20,80.4,73.7,66.3,68.0,62.6,52.7,79,69,49,30.04,29.96,20,6,20,0.00
2012-7-21,83.0,74.5,65.2,67.0,62.2,55.6,76,66,52,30.05,29.93,14,4,15,0.00
2012-7-22,82.8,75.1,64.6,68.1,63.3,54.8,80,67,54,30.04,29.95,14,4,14,0.00
2012-7-23,86.5,75.7,67.2,68.4,63.2,59.8,81,66,46,30.06,29.95,23,7,23,0.00
2012-7-24,83.2,74.7,67.4,65.5,63.0,56.8,81,68,49,30.04,29.92,27,9,27,0.00
2012-7-25,84.0,74.6,68.1,63.4,60.1,56.5,79,62,40,30.02,29.90,32,10,32,0.00
2012-7-26,83.5,73.7,65.0,63.8,59.2,45.6,75,61,47,30.01,29.93,25,8,25,0.00
2012-7-27,79.8,72.8,68.0,68.4,63.5,59.2,86,73,57,30.03,29.94,19,4,19,0.02
2012-7-28,81.3,73.8,66.0,68.7,63.8,58.2,82,71,60,30.04,29.95,20,5,20,0.00
2012-7-29,85.5,75.2,66.9,67.4,63.6,59.4,82,68,49,30.05,29.94,25,7,25,0.00
2012-7-30,84.4,76.0,69.2,70.8,66.9,61.9,81,74,59,30.03,29.93,24,7,24,0.00
2012-7-31,83.7,76.6,72.5,69.0,67.0,65.3,82,73,60,30.04,29.92,26,9,26,0.00
2012-8-1,86.1,76.9,72.2,69.9,64.7,62.1,78,67,52,30.04,29.97,26,8,26,0.00
2012-8-2,85.3,75.4,69.9,69.6,63.4,59.7,76,67,49,30.06,29.96,21,8,21,0.00
2012-8-3,82.5,74.8,68.6,70.8,64.0,59.0,77,70,54,30.06,29.97,24,7,24,0.00
2012-8-4,82.8,75.6,70.1,69.6,64.7,60.1,84,70,49,30.05,29.96,19,6,19,0.00
2012-8-5,85.2,76.8,70.1,68.7,64.2,61.4,75,66,47,30.04,29.94,17,6,17,0.00
2012-8-6,85.4,75.8,69.5,67.2,63.4,61.1,80,66,50,30.03,29.94,21,7,21,0.00
2012-8-7,85.0,75.1,67.0,65.7,62.1,57.3,78,65,49,30.03,29.93,26,9,26,0.00
2012-8-8,85.7,75.5,68.5,68.6,64.0,60.3,78,68,50,30.08,29.95,24,8,24,0.00
2012-8-9,85.7,76.0,66.1,70.0,65.4,57.3,80,70,57,30.09,29.97,27,7,27,0.00
2012-8-10,84.0,75.3,69.0,64.9,62.7,58.7,81,66,43,30.07,29.93,25,9,25,0.00
2012-8-11,85.0,75.2,67.2,68.0,63.9,56.7,80,69,51,30.01,29.90,24,6,24,0.00
2012-8-12,85.7,75.9,69.1,68.2,64.3,59.6,77,68,56,30.02,29.90,25,7,25,0.00
2012-8-13,86.3,75.9,68.9,71.1,66.2,59.9,83,72,55,30.04,29.93,22,7,22,0.00
2012-8-14,83.7,75.5,69.7,68.7,63.7,61.1,80,68,53,30.01,29.90,30,10,30,0.00
2012-8-15,85.1,75.3,70.9,66.0,63.0,59.8,75,66,51,29.99,29.88,28,10,28,0.00
2012-8-16,86.5,75.3,69.5,65.9,62.6,60.2,76,65,47,30.01,29.92,25,9,25,0.00
2012-8-17,85.0,75.1,68.1,63.2,60.5,57.2,76,62,45,30.03,29.94,23,9,23,0.00
2012-8-18,85.7,75.0,66.9,66.7,62.6,55.9,76,66,51,30.03,29.89,21,7,21,0.00
2012-8-19,84.5,73.9,65.1,71.0,64.1,57.1,83,72,48,30.00,29.90,24,5,24,0.10
2012-8-20,84.8,74.4,70.5,70.5,67.2,64.2,92,79,56,30.03,29.97,23,3,23,0.09
2012-8-21,85.8,75.9,69.2,69.6,64.7,62.3,83,69,49,30.07,29.98,22,6,22,0.00
2012-8-22,81.3,74.3,67.7,69.9,64.0,58.8,75,70,57,30.07,30.00,18,6,18,0.00
2012-8-23,82.1,75.8,67.6,69.8,65.8,59.8,84,72,54,30.07,29.96,16,4,16,0.00
2012-8-24,82.0,75.5,66.9,71.5,65.3,59.4,84,71,55,30.07,29.98,18,4,18,0.00
2012-8-25,86.0,76.0,68.8,62.6,61.2,57.8,76,62,40,30.07,29.92,34,10,34,0.00
2012-8-26,82.5,74.2,68.8,66.9,61.5,57.1,74,65,50,30.03,29.96,25,9,26,0.00
2012-8-27,84.8,75.4,68.2,65.7,62.3,59.6,79,65,47,30.04,29.91,26,9,26,0.00
2012-8-28,83.7,74.3,69.1,65.9,62.9,58.9,77,68,52,30.02,29.93,26,8,26,0.00
2012-8-29,81.5,74.9,69.7,68.4,64.5,61.8,80,70,57,30.02,29.92,22,7,22,0.00
2012-8-30,81.7,74.4,69.2,68.7,63.7,58.6,79,69,57,30.03,29.94,20,5,20,0.00
2012-8-31,83.7,74.7,67.8,66.4,62.9,58.8,77,67,53,30.05,29.96,24,7,24,0.00
2012-9-1,84.7,75.2,68.4,65.4,61.9,57.8,76,64,49,30.06,29.94,25,9,25,0.00
2012-9-2,84.5,74.8,67.8,66.0,61.3,54.2,76,63,49,30.04,29.94,28,8,28,0.00
2012-9-3,86.3,75.2,67.7,66.4,60.3,56.1,76,61,41,30.04,29.92,28,10,28,0.00
2012-9-4,85.8,75.3,66.6,67.4,61.1,56.1,76,62,43,30.07,29.96,24,7,24,0.00
2012-9-5,84.0,73.5,64.9,68.5,61.8,56.3,79,67,53,30.08,29.96,24,6,24,0.00
2012-9-6,82.9,73.4,67.3,68.5,62.6,56.1,84,70,47,30.01,29.92,19,5,19,0.05
2012-9-7,80.7,71.9,63.6,69.1,63.5,56.1,93,76,51,30.01,29.91,14,4,14,1.01
2012-9-8,82.3,73.9,64.5,69.5,65.6,61.4,90,76,57,30.06,29.95,17,2,17,0.01
2012-9-9,84.5,74.8,67.9,69.1,64.3,57.4,84,70,53,30.07,29.97,24,6,24,0.00
2012-9-10,83.5,74.7,68.5,68.5,61.7,55.8,75,65,48,30.05,29.94,30,9,30,0.00
2012-9-11,84.3,75.4,69.4,66.0,60.2,55.7,75,60,41,30.00,29.91,31,9,31,0.00
2012-9-12,85.0,75.0,68.3,65.2,61.0,55.8,76,62,47,30.02,29.89,29,9,29,0.00
2012-9-13,85.2,74.9,68.5,65.1,61.2,54.8,81,63,48,30.03,29.93,25,7,25,0.00
2012-9-14,83.7,73.3,68.4,65.6,61.7,55.1,77,68,49,30.05,29.93,23,7,23,0.00
2012-9-15,80.0,72.6,67.0,67.8,62.5,57.1,86,71,55,30.04,29.93,20,5,20,0.08
2012-9-16,83.3,73.7,64.7,66.3,61.9,55.7,80,67,47,30.05,29.94,20,4,20,0.00
2012-9-17,84.2,73.7,67.5,68.1,61.3,53.6,78,66,50,30.02,29.90,20,6,20,0.00
2012-9-18,80.7,72.3,66.5,68.2,62.4,54.6,90,72,49,29.99,29.88,16,4,16,0.04
2012-9-19,80.7,72.8,64.3,67.9,64.2,59.1,86,75,60,30.02,29.93,14,2,14,0.00
2012-9-20,80.4,72.3,65.6,70.3,66.4,60.4,94,82,63,30.06,29.96,16,3,16,0.03
2012-9-21,82.9,73.6,66.4,69.8,65.6,60.0,95,77,54,30.04,29.91,21,3,21,0.00
2012-9-22,85.2,75.0,64.7,68.1,62.4,55.8,80,66,41,30.00,29.91,24,6,24,0.00
2012-9-23,85.2,76.3,66.9,70.7,66.4,59.4,82,72,56,30.00,29.91,22,5,22,0.00
2012-9-24,83.4,76.1,70.6,66.8,64.5,62.6,80,68,52,30.02,29.89,29,8,29,0.00
2012-9-25,85.4,74.8,69.3,69.1,63.8,60.4,80,69,47,30.05,29.92,23,7,23,0.00
2012-9-26,83.7,74.3,67.9,68.6,64.0,58.1,82,71,53,30.03,29.91,26,7,26,0.00
2012-9-27,82.8,75.2,68.8,67.1,64.1,58.5,83,69,50,30.03,29.93,25,8,25,0.00
2012-9-28,82.0,74.2,65.9,66.7,61.6,55.6,81,65,53,30.00,29.89,34,7,34,0.00
2012-9-29,82.3,73.5,65.4,68.5,63.2,54.6,83,71,53,30.01,29.91,19,4,19,0.00
2012-9-30,79.5,72.6,64.5,68.2,63.5,57.1,84,74,59,30.02,29.90,12,2,0,0.00
2012-10-1,81.9,72.9,63.0,69.6,64.6,55.6,89,76,55,29.99,29.88,13,2,0,0.00
2012-10-2,80.0,74.7,67.6,69.8,66.6,61.1,87,76,68,29.98,29.87,14,2,13,0.00
2012-10-3,83.5,75.9,69.7,70.2,66.8,63.4,87,74,57,30.01,29.89,15,4,15,0.00
2012-10-4,82.0,74.1,66.8,70.5,64.1,59.2,81,71,58,30.03,29.92,14,4,14,0.00
2012-10-5,81.3,74.4,68.3,70.6,65.5,58.4,86,74,61,29.99,29.88,12,4,12,0.00
2012-10-6,79.4,74.1,70.3,70.0,67.7,62.3,89,81,69,29.96,29.84,13,2,13,0.00
2012-10-7,81.2,73.6,65.8,70.9,67.3,60.5,90,81,65,29.95,29.85,14,2,14,0.00
2012-10-8,81.3,73.1,64.6,71.0,66.3,57.6,89,80,67,29.99,29.90,14,2,14,0.00
2012-10-9,82.2,75.1,65.9,71.0,65.7,60.6,84,73,63,30.06,29.96,13,2,0,0.00
2012-10-10,83.5,76.0,67.7,72.0,68.4,61.3,92,78,61,30.07,29.95,14,3,14,0.00
2012-10-11,84.3,75.7,69.2,72.6,66.2,61.4,82,73,56,30.06,29.94,24,6,24,0.00
2012-10-12,85.5,75.6,68.9,68.5,64.1,58.1,76,68,51,30.09,29.98,24,6,24,0.00
2012-10-13,86.0,75.7,67.8,69.8,64.4,56.6,76,68,55,30.09,30.01,23,6,23,0.00
2012-10-14,86.8,75.0,66.4,68.5,63.1,52.9,81,67,49,30.10,29.98,23,7,23,0.00
2012-10-15,85.0,75.6,69.5,67.7,64.9,60.8,81,70,54,30.07,29.92,27,7,27,0.00
2012-10-16,83.8,73.4,66.7,70.2,65.2,57.5,92,77,48,30.00,29.91,19,4,19,0.11
2012-10-17,82.0,73.1,64.5,68.8,65.1,60.5,92,77,56,29.99,29.88,17,3,17,0.00
2012-10-18,84.2,73.5,63.7,68.9,63.1,54.4,85,71,51,29.99,29.88,21,4,21,0.00
2012-10-19,83.5,74.5,67.2,64.7,61.5,57.3,79,65,45,30.00,29.88,23,8,23,0.00
2012-10-20,81.5,72.3,64.5,68.8,62.9,55.0,88,73,55,29.97,29.88,23,4,23,0.01
2012-10-21,84.0,74.6,67.9,65.6,61.9,57.5,78,65,51,29.97,29.86,23,7,23,0.00
2012-10-22,81.6,73.5,66.1,67.7,61.0,53.7,76,66,47,29.99,29.85,19,5,19,0.00
2012-10-23,82.0,74.3,66.1,70.9,66.0,58.8,85,76,56,29.97,29.85,12,2,12,0.00
2012-10-24,79.2,74.5,68.3,72.2,69.7,63.3,94,85,73,29.92,29.82,11,2,0,0.01
2012-10-25,83.3,75.6,68.5,72.3,67.0,60.4,85,75,57,29.99,29.85,16,4,16,0.00
2012-10-26,82.3,75.2,67.8,70.4,66.5,62.5,86,75,64,30.05,29.94,14,2,14,0.00
2012-10-27,83.8,74.8,67.8,70.8,64.4,60.4,82,70,52,30.06,29.91,26,5,26,0.00
2012-10-28,83.1,74.1,67.9,67.1,62.5,51.6,79,68,51,30.00,29.89,24,6,24,0.00
2012-10-29,82.5,73.9,66.8,67.4,62.1,52.9,77,67,51,30.04,29.88,24,7,24,0.00
2012-10-30,83.2,72.9,64.1,68.3,62.3,52.6,86,70,43,30.06,29.93,23,4,23,0.03
2012-10-31,81.8,72.9,61.8,63.0,59.5,50.8,76,64,49,30.04,29.92,21,6,21,0.00
2012-11-1,79.7,71.2,63.3,64.8,60.3,53.4,78,69,57,30.01,29.91,15,5,15,0.00
2012-11-2,80.2,72.2,62.6,65.8,61.2,56.1,83,69,53,30.00,29.87,14,2,14,0.00
2012-11-3,80.5,73.7,66.0,67.9,63.2,59.0,81,70,56,29.99,29.89,16,4,16,0.00
2012-11-4,80.0,72.6,64.1,67.8,63.0,56.9,80,72,54,30.01,29.91,13,2,13,0.00
2012-11-5,85.0,74.7,64.8,68.8,63.8,53.9,80,69,52,29.96,29.82,22,6,22,0.00
2012-11-6,82.4,74.7,69.6,66.2,62.5,57.8,80,67,49,29.94,29.80,27,9,27,0.00
2012-11-7,82.0,73.7,66.1,65.0,62.3,56.5,76,68,51,30.02,29.89,23,6,23,0.00
2012-11-8,82.0,73.3,66.4,66.3,61.8,57.3,78,68,50,30.05,29.97,22,7,22,0.00
2012-11-9,81.3,73.0,67.9,63.2,60.2,56.3,79,65,49,30.05,29.90,33,10,33,0.00
2012-11-10,82.0,72.6,66.6,62.2,58.3,50.2,75,62,41,30.04,29.89,28,8,28,0.00
2012-11-11,82.3,73.1,65.7,65.7,58.2,49.7,74,61,41,30.04,29.93,24,7,24,0.00
2012-11-12,80.5,72.9,66.2,62.6,58.5,49.8,75,61,45,30.08,29.95,26,8,26,0.00
2012-11-13,80.7,73.1,66.6,63.5,60.0,55.3,76,64,49,30.08,29.96,29,9,29,0.00
2012-11-14,81.7,72.7,65.1,63.8,60.0,55.9,78,65,49,30.09,29.95,34,9,34,0.00
2012-11-15,77.3,71.3,66.3,63.7,60.8,55.2,79,70,55,30.08,29.98,32,9,32,0.00
2012-11-16,79.2,70.8,66.4,62.5,59.9,57.3,79,69,55,30.08,29.96,26,9,26,0.00
2012-11-17,80.0,71.7,67.7,62.9,59.3,56.0,75,65,52,30.09,29.95,28,9,28,0.00
2012-11-18,79.0,73.1,69.9,67.4,62.2,57.6,82,69,49,30.08,30.00,27,5,27,0.00
2012-11-19,80.0,73.2,68.2,66.8,62.6,58.8,79,70,56,30.08,29.97,18,5,18,0.00
2012-11-20,79.8,72.5,67.5,65.2,63.2,60.9,81,73,60,30.05,29.93,23,7,23,0.00
2012-11-21,77.0,72.2,69.1,69.5,66.5,62.2,92,82,71,30.00,29.89,13,2,13,0.19
2012-11-22,76.8,71.6,67.0,70.1,67.9,65.0,95,89,75,29.99,29.88,10,1,0,0.06
2012-11-23,81.7,72.7,65.5,70.6,65.6,59.8,91,79,55,29.97,29.87,16,3,16,0.00
2012-11-24,81.3,72.4,64.1,68.4,62.6,55.8,85,72,56,29.99,29.85,21,4,21,0.00
2012-11-25,82.3,71.9,64.3,66.9,61.3,54.7,83,70,51,30.00,29.86,22,6,22,0.00
2012-11-26,77.0,70.4,65.0,64.4,61.2,56.5,81,73,63,30.03,29.89,25,7,25,0.00
2012-11-27,77.5,70.0,65.8,62.5,60.5,58.3,83,73,56,30.07,29.94,26,8,26,0.00
2012-11-28,78.4,69.0,60.6,65.0,58.0,51.3,81,69,45,30.08,29.96,18,5,19,0.00
2012-11-29,76.3,67.8,58.8,63.9,57.7,49.4,85,71,52,30.09,29.98,11,1,0,0.00
2012-11-30,77.7,69.4,62.5,64.4,59.2,53.3,84,70,59,30.09,29.96,11,2,0,0.00
2012-12-1,76.7,69.4,60.8,65.9,58.1,47.5,77,67,58,30.08,29.97,12,2,0,0.00
2012-12-2,84.9,72.7,64.3,67.0,60.7,51.9,82,67,47,30.10,29.84,21,1,21,0.00
2012-12-3,78.3,71.3,67.9,71.1,65.9,62.6,88,83,75,30.00,29.93,7,1,0,0.00
2012-12-4,78.9,73.8,71.7,70.8,69.5,66.8,91,87,75,30.04,29.95,10,2,0,0.00
2012-12-5,78.6,73.3,70.5,70.9,69.1,66.5,95,87,69,30.11,29.92,16,2,16,0.04
2012-12-6,77.0,71.5,65.9,69.6,66.9,62.7,96,86,75,30.01,29.89,13,2,13,0.00
2012-12-7,80.2,72.5,63.5,67.7,62.2,57.4,87,71,54,30.00,29.86,20,4,22,0.00
2012-12-8,80.0,71.9,61.9,66.4,61.6,50.6,81,70,56,29.97,29.84,14,4,14,0.00
2012-12-9,79.8,72.0,65.2,65.9,62.5,57.8,81,72,58,29.98,29.83,19,4,19,0.00
2012-12-10,78.5,71.1,64.1,64.4,61.6,56.2,81,72,61,30.01,29.88,27,7,27,0.00
2012-12-11,79.2,71.6,66.8,60.8,58.4,53.3,75,64,48,30.06,29.93,31,10,31,0.00
2012-12-12,78.7,71.3,66.5,61.9,59.0,54.5,78,66,53,30.06,29.92,36,10,36,0.00
2012-12-13,79.9,71.5,65.6,63.8,58.7,45.6,77,64,44,30.10,29.96,33,8,33,0.00
2012-12-14,78.3,71.4,66.6,63.3,60.3,54.0,76,68,57,30.11,30.00,29,8,29,0.00
2012-12-15,78.7,69.4,62.5,64.8,58.6,49.9,81,69,53,30.12,30.01,21,4,21,0.00
2012-12-16,81.0,70.8,61.3,65.4,59.7,53.9,82,69,51,30.10,29.95,28,4,28,0.00
2012-12-17,81.5,71.1,62.6,62.3,58.9,54.6,81,66,45,30.08,29.91,35,7,35,0.00
2012-12-18,82.3,71.1,62.5,64.3,57.4,50.6,81,64,35,30.07,29.93,26,5,26,0.00
2012-12-19,78.9,68.9,59.6,65.9,59.9,52.8,84,73,55,30.04,29.90,29,4,29,0.00
2012-12-20,77.6,71.2,67.7,64.9,61.5,57.9,78,72,63,30.01,29.85,39,11,39,0.00
2012-12-21,77.8,69.7,65.2,61.2,57.9,52.8,79,67,43,30.03,29.91,32,9,32,0.00
2012-12-22,78.2,70.5,61.4,60.3,54.9,50.9,76,59,43,30.08,29.93,16,5,16,0.00
2012-12-26,70.8,68.7,66.8,62.0,60.9,59.4,78,76,73,30.03,29.98,21,6,21,0.00
2012-12-27,80.5,70.0,63.8,65.2,59.8,56.1,80,71,50,30.03,29.91,23,5,23,0.00
2012-12-28,78.1,70.1,60.6,64.4,58.4,50.9,83,67,54,30.01,29.90,11,2,0,0.00
2012-12-29,77.7,69.6,61.5,66.3,60.5,50.3,88,73,54,30.03,29.92,8,2,13,0.00
2012-12-30,78.3,70.4,62.0,67.5,62.6,56.0,89,77,61,30.05,29.95,8,2,13,0.00
2012-12-31,77.2,70.0,63.9,68.1,62.8,57.2,88,78,65,30.08,29.97,12,2,12,0.00
2013-1-1,80.5,71.4,63.4,67.5,60.9,55.9,90,71,52,30.10,29.90,28,5,28,0.00